User: anonymous   Login
Location: Albany
(35.0000°S, 118.0000°E)
Time: 10:10:07
(UTC-04:00)
Language:

ERS-1 Rocket - Orbit

View from above orbital plane
View from above orbital plane
View from above satellite
View from above satellite

Ground track
Ground track

The orbit data is extracted from the following two-line orbital elements,

1 21610U 91050F   17263.81554546 +.00000018 +00000-0 +19788-4 0  9998
2 21610 098.5953 320.9119 0003625 036.6836 095.1278 14.40808322373607
Epoch (UTC): 20 September 2017 19:34:23
Eccentricity: 0.0003625
inclination: 98.5953°
perigee height: 753 km
apogee height: 758 km
right ascension of ascending node: 320.9119°
argument of perigee: 36.6836°
revolutions per day: 14.40808322
mean anomaly at epoch: 95.1278°
orbit number at epoch: 37360

The dashed part of the orbit path shows where the satellite is in the earth's shadow,  

DLR